| time (UTC) | temp F | wind direction | speed knots | gust knots | rain 1hr in | rain 24hr in | rain mn in | humidity % | barometer mb |
| 20260509042754 | 72 | 185 | 1.7 | 1.7 | 0.00 | 0.00 | 0.00 | 87 | 1010.5 |
| 20260509035754 | 73 | 23 | 0.0 | 0.0 | 0.00 | 0.00 | 0.00 | 85 | 1011.2 |
| 20260509032753 | 73 | 150 | 1.7 | 1.7 | 0.00 | 0.00 | 0.00 | 85 | 1010.3 |
| 20260509025749 | 73 | 210 | 0.0 | 0.0 | 0.00 | 0.00 | 0.00 | 85 | 1010.1 |
| 20260509022744 | 72 | 149 | 0.9 | 1.7 | 0.00 | 0.00 | 0.00 | 84 | 1009.8 |
| 20260509015741 | 73 | 186 | 0.9 | 0.9 | 0.00 | 0.00 | 0.00 | 83 | 1009.3 |
| 20260509012739 | 73 | 152 | 0.9 | 1.7 | 0.00 | 0.00 | 0.00 | 82 | 1009.4 |
| 20260509005734 | 73 | 216 | 0.9 | 0.9 | 0.00 | 0.00 | 0.00 | 82 | 1008.7 |
| 20260509002733 | 74 | 188 | 1.7 | 1.7 | 0.00 | 0.00 | 0.00 | 80 | 1008.7 |
| 20260508235733 | 74 | 144 | 0.9 | 0.9 | 0.00 | 0.00 | 0.00 | 79 | 1009.1 |
| 20260508232729 | 75 | 194 | 0.0 | 0.9 | 0.00 | 0.00 | 0.00 | 77 | 1009.2 |
| 20260508225729 | 76 | 159 | 2.6 | 4.3 | 0.00 | 0.00 | 0.00 | 74 | 1009.4 |
| 20260508222724 | 76 | 155 | 2.6 | 2.6 | 0.00 | 0.00 | 0.00 | 72 | 1009.4 |
| 20260508215719 | 76 | 146 | 3.5 | 5.2 | 0.00 | 0.00 | 0.00 | 73 | 1009.2 |
| 20260508212717 | 76 | 71 | 0.0 | 0.9 | 0.00 | 0.00 | 0.00 | 73 | 1008.8 |
| 20260508205714 | 73 | 164 | 1.7 | 2.6 | 0.00 | 0.00 | 0.00 | 76 | 1010.1 |
| 20260508202709 | 73 | 187 | 0.9 | 0.9 | 0.00 | 0.00 | 0.00 | 77 | 1011.3 |
| 20260508195707 | 75 | 219 | 1.7 | 1.7 | 0.00 | 0.00 | 0.00 | 73 | 1011.2 |
| 20260508192704 | 76 | 126 | 2.6 | 4.3 | 0.00 | 0.00 | 0.00 | 71 | 1011.3 |
| 20260508185703 | 76 | 215 | 2.6 | 5.2 | 0.00 | 0.00 | 0.00 | 70 | 1011.6 |
| 20260508182701 | 78 | 170 | 1.7 | 2.6 | 0.00 | 0.00 | 0.00 | 65 | 1011.8 |
| 20260508175659 | 78 | 200 | 0.9 | 0.9 | 0.00 | 0.00 | 0.00 | 66 | 1012.3 |
| 20260508172658 | 78 | 132 | 2.6 | 2.6 | 0.00 | 0.00 | 0.00 | 63 | 1012.6 |
| 20260508165656 | 76 | 226 | 1.7 | 1.7 | 0.00 | 0.00 | 0.00 | 66 | 1013.5 |
| 20260508162654 | 75 | 166 | 0.9 | 1.7 | 0.00 | 0.00 | 0.00 | 67 | 1014.1 |
| 20260508155651 | 72 | 149 | 4.3 | 5.2 | 0.00 | 0.00 | 0.00 | 69 | 1014.5 |
| 20260508152649 | 70 | 169 | 2.6 | 2.6 | 0.00 | 0.00 | 0.00 | 71 | 1015.0 |
| 20260508145646 | 69 | 151 | 1.7 | 1.7 | 0.00 | 0.00 | 0.00 | 71 | 1015.1 |
| 20260508142645 | 68 | 159 | 2.6 | 4.3 | 0.00 | 0.00 | 0.00 | 73 | 1015.0 |
| 20260508135643 | 68 | 185 | 2.6 | 2.6 | 0.00 | 0.00 | 0.00 | 73 | 1015.4 |
| 20260508132642 | 66 | 113 | 0.0 | 0.9 | 0.00 | 0.00 | 0.00 | 77 | 1014.9 |
| 20260508125643 | 62 | 68 | 0.0 | 0.0 | 0.00 | 0.00 | 0.00 | 90 | 1015.5 |
| 20260508122638 | 60 | 232 | 0.0 | 0.0 | 0.00 | 0.00 | 0.00 | 94 | 1015.6 |
| 20260508115636 | 60 | 295 | 0.0 | 0.0 | 0.00 | 0.00 | 0.00 | 94 | 1015.5 |
| 20260508112634 | 60 | 334 | 0.0 | 0.0 | 0.00 | 0.00 | 0.00 | 93 | 1015.4 |
| 20260508105631 | 59 | 280 | 0.0 | 0.0 | 0.00 | 0.00 | 0.00 | 94 | 1015.7 |
| 20260508102626 | 60 | 190 | 0.0 | 0.0 | 0.00 | 0.00 | 0.00 | 92 | 1014.4 |
| 20260508095627 | 60 | 179 | 0.9 | 0.9 | 0.00 | 0.00 | 0.00 | 92 | 1014.6 |
| 20260508092621 | 61 | 197 | 0.0 | 0.0 | 0.00 | 0.00 | 0.00 | 91 | 1014.8 |
| 20260508085616 | 61 | 245 | 0.0 | 0.0 | 0.00 | 0.00 | 0.00 | 91 | 1015.0 |
| 20260508082614 | 61 | 2 | 0.0 | 0.0 | 0.00 | 0.00 | 0.00 | 92 | 1015.8 |
| 20260508075615 | 61 | 4 | 0.0 | 0.0 | 0.00 | 0.00 | 0.00 | 91 | 1016.1 |
| 20260508072614 | 61 | 140 | 0.0 | 0.0 | 0.00 | 0.00 | 0.00 | 91 | 1015.6 |
| 20260508065612 | 61 | 140 | 0.0 | 0.0 | 0.00 | 0.00 | 0.00 | 90 | 1016.0 |
| 20260508062609 | 61 | 177 | 0.0 | 0.0 | 0.00 | 0.00 | 0.00 | 90 | 1016.2 |
| 20260508055607 | 60 | 176 | 0.0 | 0.0 | 0.00 | 0.00 | 0.00 | 90 | 1016.0 |
| 20260508052602 | 60 | 176 | 0.0 | 0.0 | 0.00 | 0.00 | 0.00 | 89 | 1016.4 |
| 20260508045557 | 61 | 176 | 0.0 | 0.0 | 0.00 | 0.00 | 0.00 | 88 | 1016.1 |